Hourly Data Report for September 24, 2017

TORONTO CITY
ONTARIO

43°40'00.000" N
79°24'00.000" W
112.50 m
6158355
71508
XTO

Download Data

Hourly Data (September 2017)
Hourly Data Report for September 24, 2017
TIME
LST
Temp Definition
°C
Dew Point Definition
°C
Rel Hum Definition
%
Precip. Amount Definition
mm

Wind Dir Definition
10's deg

Wind Spd Definition
km/h
Visibility Definition
km
Stn Press Definition
kPa
Hmdx Definition


Wind Chill Definition


Weather Definition


00:00 24.1 18.6 71 0.0 LegendMM LegendMM   100.55 31   LegendNANA
01:00 24.0 18.0 69 0.0 LegendMM LegendMM   100.57 30   LegendNANA
02:00 22.5 18.3 77 0.0 LegendMM LegendMM   100.60 29   LegendNANA
03:00 22.0 18.3 80 0.0 LegendMM LegendMM   100.62 28   LegendNANA
04:00 21.6 18.2 81 0.0 LegendMM LegendMM   100.64 28   LegendNANA
05:00 21.7 18.3 81 0.0 LegendMM LegendMM   100.68 28   LegendNANA
06:00 21.3 17.4 78 0.0 LegendMM LegendMM   100.71 27   LegendNANA
07:00 21.6 18.2 81 0.0 LegendMM LegendMM   100.75 28   LegendNANA
08:00 24.5 19.1 72 0.0 LegendMM LegendMM   100.78 31   LegendNANA
09:00 26.7 18.9 62 0.0 LegendMM LegendMM   100.78 33   LegendNANA
10:00 29.4 18.8 53 0.0 LegendMM LegendMM   100.76 36   LegendNANA
11:00 30.0 18.2 49 0.0 LegendMM LegendMM   100.74 36   LegendNANA
12:00 30.4 16.8 44 0.0 LegendMM LegendMM   100.71 36   LegendNANA
13:00 31.1 17.9 45 0.0 LegendMM LegendMM   100.66 37   LegendNANA
14:00 31.0 16.9 43 0.0 LegendMM LegendMM   100.61 36   LegendNANA
15:00 29.6 16.6 46 0.0 LegendMM LegendMM   100.56 35   LegendNANA
16:00 30.1 17.1 46 0.0 LegendMM LegendMM   100.50 35   LegendNANA
17:00 29.1 17.0 48 0.0 LegendMM LegendMM   100.50 34   LegendNANA
18:00 27.6 17.1 53 0.0 LegendMM LegendMM   100.50 33   LegendNANA
19:00 26.3 17.6 59 0.0 LegendMM LegendMM   100.50 32   LegendNANA
20:00 25.8 17.7 61 0.0 LegendMM LegendMM   100.53 32   LegendNANA
21:00 24.9 17.8 65 0.0 LegendMM LegendMM   100.56 31   LegendNANA
22:00 24.8 18.0 66 0.0 LegendMM LegendMM   100.55 31   LegendNANA
23:00 24.1 18.5 71 0.0 LegendMM LegendMM   100.54 30   LegendNANA

Notes on Data Quality.

Legend

  • E = Estimated
  • M = Missing
  • NA = Not Available*
  • [empty] = Indicates an unobserved value
Date modified: